Regional Weather Roundup
Issued by NWS Sioux Falls, SD

Home | Current Version | Previous Version | Graphics & Text | Print | Product List | Glossary Off
Versions: 1 2 3 4 5 6 7 8 9 10 11 12 13 14 15 16 17 18 19 20 21 22 23 24 25 26 27 28 29 30 31 32 33 34 35 36 37 38 39 40 41 42 43 44 45 46 47 48 49 50

000
ASUS43 KFSD 300402
RWRFSD

WEATHER ROUNDUP FOR SE SOUTH DAKOTA/SW MINNESOTA/NW IOWA
NATIONAL WEATHER SERVICE SIOUX FALLS SD
1100 PM CDT SUN MAY 29 2016

NOTE: "FAIR" INDICATES FEW OR NO CLOUDS BELOW 12,000 FEET WITH NO
SIGNIFICANT WEATHER AND OR OBSTRUCTIONS TO VISIBILITY.


SDZ038>040-050-052>070-300500-
SOUTHEAST SOUTH DAKOTA

CITY           SKY/WX    TMP DP  RH WIND       PRES   REMARKS
BROOKINGS      CLEAR     62  51  67 S8        30.03R
CHAMBERLAIN    NOT AVBL
HURON          CLEAR     67  51  56 S8        30.00R
MADISON        FAIR      64  54  68 S5        30.04S
MITCHELL       CLOUDY    66  56  70 SE7       30.01S
SIOUX FALLS    CLEAR     60  55  83 CALM      30.03S
WINNER         FAIR      64  57  78 SE8       29.98S
YANKTON        CLOUDY    66  55  68 NE6       30.01S
$$

MNZ071-072-080-081-089-090-097-098-300500-
SOUTHWEST MINNESOTA

CITY           SKY/WX    TMP DP  RH WIND       PRES   REMARKS
FAIRMONT       CLEAR     64  46  52 W6        30.02S
JACKSON        CLEAR     63  52  67 CALM      30.05R
LUVERNE        CLEAR     61  52  72 CALM      30.04S
MARSHALL       PTCLDY    65  51  60 SW8       30.01R
MONTEVIDEO     CLEAR     68  43  40 W5        30.00S
PIPESTONE      CLEAR     63  54  72 SW3       30.04S
REDWOOD FALLS  CLEAR     64  48  56 E3        29.99R
TRACY          CLEAR     64  53  66 SW6       30.02S
WINDOM         CLEAR     64  52  63 CALM      30.04R
WORTHINGTON    CLEAR     65  51  60 SW5       30.05R
$$

IAZ001>003-012>014-020>022-031-032-NEZ013-014-SDZ071-300500-
NORTHWEST IOWA

CITY           SKY/WX    TMP DP  RH WIND       PRES   REMARKS
CHEROKEE       CLOUDY    60  58  92 N5        30.04S
DENISON        CLOUDY    66  59  77 CALM      30.01S
ESTHERVILLE    CLEAR     61  56  83 W5        30.04R
SIOUX CITY     CLOUDY    72  55  55 E8        30.01S
SPENCER        CLEAR     61  52  72 SW5       30.05R
STORM LAKE     CLOUDY    66  54  63 NE5       30.05S
$$

ABBREVIATIONS USED IN REMARKS
   TC - TEMPERATURE IN CELSIUS
  WCI - WIND CHILL INDEX
   HX - HEAT INDEX
  VSB - VISIBILITY





USA.gov is the U.S. government's official web portal to all federal, state and local government web resources and services.